Location: Shepherdstown, WV
(39.4326°N, 77.8042°W)
Time: 07:08:28
(UTC-04:00)

Tiros 1 despin weight - Pass Details

Date: 24 July 2021
Orbit: 594 x 641 km, 48.2° (Epoch: 16 September)

Event Time Altitude Azimuth Distance (km) Brightness Sun altitude
Rises 21:22:18 0° 299° (WNW) 2,932 ? -9.4°
Reaches altitude 10° 21:24:49 10° 309° (NW) 2,017 ? -9.8°
Maximum altitude 21:29:04 34° 15° (NNE) 1,032 ? -10.4°
Drops below altitude 10° 21:33:15 10° 81° (E) 1,988 ? -11.1°
Enters shadow 21:33:53 - 84° (E) 2,208 ? -11.2°
